This is the latest recevied weather packets stored in our database for station/object EA5GTE-12. If no packets are shown the sender has not sent any weather packets the latest 10 day(s).
| Time | Temp. | Humidity | Pressure | Rain* | Wind** | Luminosity | Snow |
|---|---|---|---|---|---|---|---|
| 1787850500 | 25.56° C | 35% | 936.3 hPa | - | - | - | - |
| 1787849600 | 26.11° C | 33% | 936.2 hPa | - | - | - | - |
| 1787848700 | 26.11° C | 32% | 935.8 hPa | - | - | - | - |
| 1787846902 | 27.22° C | 32% | 935.6 hPa | - | - | - | - |
| 1787846002 | 27.22° C | 33% | 935.7 hPa | - | - | - | - |
| 1787845102 | 28.33° C | 30% | 935.6 hPa | - | - | - | - |
| 1787844202 | 29.44° C | 28% | 935.9 hPa | - | - | - | - |
| 1787843302 | 30° C | 28% | 936 hPa | - | - | - | - |
| 1787842402 | 30.56° C | 27% | 936 hPa | - | - | - | - |
| 1787841502 | 30° C | 27% | 936.1 hPa | - | - | - | - |
| 1787840602 | 30° C | 28% | 936.3 hPa | - | - | - | - |
| 1787839702 | 30° C | 27% | 936.3 hPa | - | - | - | - |
| 1787838802 | 29.44° C | 29% | 936.3 hPa | - | - | - | - |
| 1787837901 | 30° C | 29% | 936.2 hPa | - | - | - | - |
| 1787837001 | 29.44° C | 25% | 936.4 hPa | - | - | - | - |
| 1787836101 | 30° C | 28% | 936.5 hPa | - | - | - | - |
| 1787835201 | 28.89° C | 27% | 936.7 hPa | - | - | - | - |
| 1787834300 | 28.33° C | 31% | 936.3 hPa | - | - | - | - |
| 1787833400 | 27.78° C | 33% | 936.6 hPa | - | - | - | - |
| 1787832500 | 27.78° C | 35% | 936.7 hPa | - | - | - | - |
| 1787831600 | 27.78° C | 37% | 937.1 hPa | - | - | - | - |
| 1787830699 | 26.67° C | 39% | 937.2 hPa | - | - | - | - |
| 1787829799 | 27.22° C | 43% | 937.5 hPa | - | - | - | - |
| 1787828899 | 27.22° C | 43% | 937.5 hPa | - | - | - | - |
| 1787827999 | 27.22° C | 43% | 937.5 hPa | - | - | - | - |
* Rain since midnight (hover to see other rain measurements)
** Current wind speed in m/s (hover to see current wind gust speed)